Showing default

INMARSAT 5-F2, 40384

Orbit data source: Space-Track

INMARSAT 5-F2, 40384 is a payload satellite owned by INMARSAT-Ltd (UK) in GEO that was launched on Sun, 01 Feb 2015 UTC via a PROTON-M/BRIZ-M launch vehicle from the Tyuratam Missile And Space Complex (TTMTR). Payload-class satellites include a variety of spacecraft equipped with specific instruments for various scientific and technological missions. These include communications satellites like Starlink; space stations such as the ISS; scientific satellites like the Hubble; Earth observation satellites from companies like Planet Labs, Umbra, and HawkEye 360; GPS; miniature CubeSats for education and research; and military/defense satellites.

Loading next visibility...
Identifier
40384, 2015-005A
Orbit
GEO
Country
Flag of IMIM
Related business
Manufacturer
Boeing/ES
Mission
Operational Commercial Communications
Bus & Motor
BSS-702HP, R-4D
Mass
6,070 kg wet, 3,700 kg dry
Launch date (UTC)
2015-02-01 (11 years ago)
Launch vehicle
PROTON-M/BRIZ-M
Launch site
Tyuratam Missile And Space Complex (TTMTR)
Object type
Payload
Rocket body
Debris
Shape & HBR
Box + 2 Pan, 16.9 m
Radar Cross Section
53.751 m², Large (>1 m²)

Expand to show TLE details & history
Last TLE update: 16 hours ago

TLE from 16 hours ago
0 INMARSAT 5-F2
1 40384U 15005A   25349.26159223 -.00000264  00000-0  00000-0 0  9996
2 40384   0.0035  71.1219 0000112 294.0653 118.1574  1.00271934 39155
Epoch: 2025-12-15T06:16Z
TLE epoch observation values (Epoch: 2025-12-15T06:16:41.568Z)
Latitude
0.0004°
Longitude
-55.00095°
Altitude
35,786.264 km
Speed
3.075 km/s
True Right ascension
08h 13m 20s
True Declination
0° 00' 01"
Sunlit
Object was in daylight at epoch
Visualization orbit readout
Latitude
Unknown
Longitude
Unknown
Altitude
Unknown
Speed
Unknown
Apparent Right ascension
Unknown
Apparent Declination
Unknown
Sunlit
N/A
Visualization observer readout
Local Sidereal Time
21:15:56
Azimuth
Unknown
Elevation
Unknown
Doppler factor
Unknown
Orbital elements
Apogee altitude
35,788.096 km
Perigee altitude
35,787.151 km
Semi-major axis
42,165.761 km
Eccentricity
0.00001
Inclination
0.0035°
RAAN
71.1219°
Arg. of periapsis
294.0653°
True anomaly
118.15853°
Mean anomaly
118.1574°
Eccentric anomaly
118.15797°
Mean motion
0.25067 °/min
Orbital period
1,436.15 mins
BSTAR
0
Loading maneuver chart data...
Computing Atmospheric mass density...
Loading historical data...
Loading historical data...
Loading historical data...
Loading historical data...
Loading historical data...
Loading historical data...
Loading historical data...
Other satellites on launch #5 in the year 2015 (2015-02-01 UTC)

Documentation

Showing up to 5 results
|